Location: Prairie Dale
(45.6972°N, 104.5033°W)
Time: 17:53:49
(UTC+00:00)

STARS - Pass Details

Date: 05 July 2022
Orbit: 620 x 637 km, 98.2° (Epoch: 18 August)

Event Time Altitude Azimuth Distance (km) Brightness Sun altitude
Rises 04:29:59 0° 31° (NNE) 2,927 ? -13.2°
Reaches altitude 10° 04:33:05 10° 55° (NE) 2,010 ? -13.6°
Maximum altitude 04:35:36 15° 90° (E) 1,692 ? -13.8°
Enters shadow 04:36:31 14° 105° (ESE) 1,733 ? -13.9°
